Air Resources Laboratory banner image
Air Resources Laboratory web site National Oceanic and Atmospheric Administration (NOAA)

ms roundup


Office: JAN

ASUS44 KJAN 102310
RWRMS

MISSISSIPPI HOURLY WEATHER ROUNDUP
NATIONAL WEATHER SERVICE JACKSON MS
600 PM CDT WED AUG 10 2022

NOTE: "FAIR: INDICATES FEW OR NO CLOUDS BELOW 12,000 FEET WITH NO
SIGNIFICANT WEATHER AND/OR OBSTRUCTIONS TO VISIBILITY.

MSZ001>002-007>008-010>013-018>021-025>028-034>036-110000-
NORTHWEST MISSISSIPPI

CITY           SKY/WX    TMP DP  RH WIND       PRES   REMARKS
BATESVILLE     MIX PCPN  75  73  94 CALM      30.04F
CLARKSDALE     MOSUNNY   75  75 100 S3        30.06F FOG
CLEVELAND      RAIN      74  74 100 N7        30.05S
GREENWOOD      PTSUNNY   82  73  74 VRB3      30.04F
GREENVILLE     CLOUDY    80  74  81 SE9       30.03R
OLIVE BRANCH   PTSUNNY   88  72  58 SE12      30.03F HX  94
OXFORD         PTSUNNY   77  72  83 S6        30.07F
TUNICA         MOSUNNY   81  76  85 SE8       30.04S
WINONA         DRIZZLE   75  74  95 CALM      30.03F
$$

MSZ003>006-009-014>017-022>024-029>033-037>039-110000-
NORTHEAST MISSISSIPPI

CITY           SKY/WX    TMP DP  RH WIND       PRES   REMARKS
ABERDEEN       DRIZZLE   77  79 100 N5        30.05F
COLUMBUS AFB   MOSUNNY   84  72  66 CALM      30.00F HX  90
CORINTH        PTSUNNY   77  75  94 CALM      30.04F
GOLDN TRIANGLE PTSUNNY   84  75  74 W5        30.04F HX  92
TUPELO         PTSUNNY   80  72  76 SE3       30.04F
$$

MSZ040-058-110000-
CENTRAL MISSISSIPPI

CITY           SKY/WX    TMP DP  RH WIND       PRES   REMARKS
JACKSON INTL   PTSUNNY   80  72  76 E6        30.05S
JACKSON HAWKNS PTSUNNY   82  75  79 E3        30.05F
MERIDIAN KEY   PTSUNNY   85  71  63 S6        30.05S HX  90
MERIDIAN NAS   PTSUNNY   84  70  62 SE6       30.05F
PRESTON        TSTM      78  75  90 N7        30.08
RAYMOND        FAIR      82  82 100 CALM      30.04F HX  97
VICKSBURG VKS  SUNNY     82  77  83 S5        30.02F HX  91
$$

MSZ059>079-110000-
SOUTH MISSISSIPPI

CITY           SKY/WX    TMP DP  RH WIND       PRES   REMARKS
BROOKHAVEN     FAIR      75  75 100 CALM      30.07F
HATTIESBURG    CLOUDY    77  74  90 W6        30.09R
LAUREL         PTSUNNY   82  74  77 W8        30.07R
MCCOMB         CLOUDY    76  74  93 SE3       30.05F
NATCHEZ        PTSUNNY   79  75  89 SE10      30.05F
PINE BELT      CLOUDY    75  73  94 SW9G21    30.09R THUNDER
$$

MSZ080>082-110000-
COASTAL MISSISSIPPI

CITY           SKY/WX    TMP DP  RH WIND       PRES   REMARKS
BAY ST LOUIS   MOSUNNY   82  75  78 S5        30.05F
BILOXI         PTSUNNY   82  73  74 SE6       30.04F
PASCAGOULA     MOSUNNY   84  75  74 S10       30.06S HX  92
GULFPORT       PTSUNNY   84  76  76 SE9       30.05S HX  93
$$

LAZ007>009-015>016-023>026-110000-
NORTHEAST LOUISIANA

CITY           SKY/WX    TMP DP  RH WIND       PRES   REMARKS
TALLULAH/VBURG MOSUNNY   84  75  74 SE10      30.03F HX  92
$$


ASUS44 KJAN 102310
RWRMS

MISSISSIPPI HOURLY WEATHER ROUNDUP
NATIONAL WEATHER SERVICE JACKSON MS
600 PM CDT WED AUG 10 2022

NOTE: "FAIR: INDICATES FEW OR NO CLOUDS BELOW 12,000 FEET WITH NO
SIGNIFICANT WEATHER AND/OR OBSTRUCTIONS TO VISIBILITY.

MSZ001>002-007>008-010>013-018>021-025>028-034>036-110000-
NORTHWEST MISSISSIPPI

CITY           SKY/WX    TMP DP  RH WIND       PRES   REMARKS
BATESVILLE     MIX PCPN  75  73  94 CALM      30.04F
CLARKSDALE     MOSUNNY   75  75 100 S3        30.06F FOG
CLEVELAND      RAIN      74  74 100 N7        30.05S
GREENWOOD      PTSUNNY   82  73  74 VRB3      30.04F
GREENVILLE     CLOUDY    80  74  81 SE9       30.03R
OLIVE BRANCH   PTSUNNY   88  72  58 SE12      30.03F HX  94
OXFORD         PTSUNNY   77  72  83 S6        30.07F
TUNICA         MOSUNNY   81  76  85 SE8       30.04S
WINONA         DRIZZLE   75  74  95 CALM      30.03F
$$

MSZ003>006-009-014>017-022>024-029>033-037>039-110000-
NORTHEAST MISSISSIPPI

CITY           SKY/WX    TMP DP  RH WIND       PRES   REMARKS
ABERDEEN       DRIZZLE   77  79 100 N5        30.05F
COLUMBUS AFB   MOSUNNY   84  72  66 CALM      30.00F HX  90
CORINTH        PTSUNNY   77  75  94 CALM      30.04F
GOLDN TRIANGLE PTSUNNY   84  75  74 W5        30.04F HX  92
STARKVILLE     FAIR     N/A N/A N/A CALM      30.03F
TUPELO         PTSUNNY   80  72  76 SE3       30.04F
$$

MSZ040-058-110000-
CENTRAL MISSISSIPPI

CITY           SKY/WX    TMP DP  RH WIND       PRES   REMARKS
JACKSON INTL   PTSUNNY   80  72  76 E6        30.05S
JACKSON HAWKNS PTSUNNY   82  75  79 E3        30.05F
MERIDIAN KEY   PTSUNNY   85  71  63 S6        30.05S HX  90
MERIDIAN NAS   PTSUNNY   84  70  62 SE6       30.05F
PRESTON        TSTM      78  75  90 N7        30.08F
RAYMOND        FAIR      82  82 100 CALM      30.04F HX  97
VICKSBURG VKS  SUNNY     82  77  83 S5        30.02F HX  91
$$

MSZ059>079-110000-
SOUTH MISSISSIPPI

CITY           SKY/WX    TMP DP  RH WIND       PRES   REMARKS
BROOKHAVEN     FAIR      75  75 100 CALM      30.07F
HATTIESBURG    CLOUDY    77  74  90 W6        30.09R
LAUREL         PTSUNNY   82  74  77 W8        30.07R
MCCOMB         CLOUDY    76  74  93 SE3       30.05F
NATCHEZ        PTSUNNY   79  75  89 SE10      30.05F
PINE BELT      CLOUDY    75  73  94 SW9G21    30.09R THUNDER
$$

MSZ080>082-110000-
COASTAL MISSISSIPPI

CITY           SKY/WX    TMP DP  RH WIND       PRES   REMARKS
BAY ST LOUIS   MOSUNNY   82  75  78 S5        30.05F
BILOXI         PTSUNNY   82  73  74 SE6       30.04F
PASCAGOULA     MOSUNNY   84  75  74 S10       30.06S HX  92
GULFPORT       PTSUNNY   84  76  76 SE9       30.05S HX  93
$$

LAZ007>009-015>016-023>026-110000-
NORTHEAST LOUISIANA

CITY           SKY/WX    TMP DP  RH WIND       PRES   REMARKS
TALLULAH/VBURG MOSUNNY   84  75  74 SE10      30.03F HX  92
$$